{"data":{"norad_id":63108,"intl_designator":"2025-039E","name":"STARLINK-11632 [DTC]","alt_names":[],"object_type":"PAYLOAD","status":"ACTIVE","operator":null,"country":"US","launch_date":"2025-02-27","launch_site_code":"AFETR","launch_vehicle":null,"mission":null,"orbit_class":"UNKNOWN","rcs_meters":null,"size_class":null,"mass_kg":null,"dimensions":null,"purposes":["comms"],"wikipedia_slug":null,"has_3d_model":false,"image_url":null,"decayed_at":null,"tle_current":{"epoch":"2026-05-24T23:42:35.767008Z","epoch_age_seconds":79620,"freshness":"FRESH","line1":"1 63108U 25039E   26144.98791397  .00226669  00000+0  17103-2 0  9991","line2":"2 63108  43.0001 137.0851 0005557 288.8796  71.1469 15.70992771 71614","mean_motion":15.70992771,"eccentricity":0.0005557,"inclination_deg":43.0001,"raan_deg":137.0851,"arg_perigee_deg":288.8796,"mean_anomaly_deg":71.1469,"bstar":0.0017103,"rev_number":7161,"period_min":91.661783973925,"perigee_km":352.31625643327,"apogee_km":359.80064125512,"semimajor_km":6734.1954488442,"source":"CELESTRAK","updated_at":"2026-05-25T13:38:19.882761Z"}}}